FW0069 Weather Reports


time (UTC)temp
C
wind
direction
speed
KPH
gust
KPH
rain 1hr
cm
rain 24hr
cm
rain mn
cm
humidity
%
barometer
mb
20260502163034 25 360 3.2 9.7 0.00 0.00 0.00 13 1018.5
20260502161533 24 360 3.2 12.9 0.00 0.00 0.00 14 1018.3
20260502161033 24 360 6.4 9.7 0.00 0.00 0.00 14 1018.3
20260502160533 24 182 6.4 14.5 0.00 0.00 0.00 14 1018.4
20260502151503 21 360 6.4 8.0 0.00 0.00 0.00 14 1017.9
20260502151034 21 360 4.8 9.7 0.00 0.00 0.00 15 1017.9
20260502150505 20 360 3.2 9.7 0.00 0.00 0.00 14 1017.9
20260502130533 16 360 1.6 6.4 0.00 0.00 0.00 17 1016.8
20260502123503 17 360 0.0 8.0 0.00 0.00 0.00 16 1016.6
20260502122533 17 360 4.8 8.0 0.00 0.00 0.00 16 1016.7
20260502122004 17 360 4.8 9.7 0.00 0.00 0.00 16 1016.6
20260502121503 17 360 1.6 9.7 0.00 0.00 0.00 16 1016.6
20260502121004 17 360 1.6 8.0 0.00 0.00 0.00 16 1016.6
20260502120533 17 360 3.2 8.0 0.00 0.00 0.00 16 1016.5
20260502115503 17 360 3.2 8.0 0.00 0.00 0.00 16 1016.4
20260502115033 17 360 1.6 9.7 0.00 0.00 0.00 16 1016.4
20260502114534 18 360 3.2 9.7 0.00 0.00 0.00 15 1016.5
20260502113503 18 360 4.8 8.0 0.00 0.00 0.00 15 1016.5
20260502113034 18 235 3.2 8.0 0.00 0.00 0.00 15 1016.5
20260502112503 18 360 1.6 8.0 0.00 0.00 0.00 15 1016.5
20260502112033 18 360 1.6 6.4 0.00 0.00 0.00 15 1016.4
20260502111033 18 360 6.4 9.7 0.00 0.00 0.00 15 1016.4
20260502110503 19 360 1.6 8.0 0.00 0.00 0.00 14 1016.7
20260502105033 18 360 1.6 11.3 0.00 0.00 0.00 14 1016.7
20260502104503 18 360 8.0 11.3 0.00 0.00 0.00 14 1016.6
20260502104033 18 360 1.6 11.3 0.00 0.00 0.00 14 1016.6
20260502103533 18 360 8.0 11.3 0.00 0.00 0.00 14 1016.6
20260502102533 18 25 0.0 14.5 0.00 0.00 0.00 15 1016.6
20260502102033 18 26 1.6 14.5 0.00 0.00 0.00 14 1016.7
20260502101533 18 360 12.9 12.9 0.00 0.00 0.00 14 1016.6
20260502101003 18 360 6.4 11.3 0.00 0.00 0.00 14 1016.7
20260502100503 18 273 4.8 4.8 0.00 0.00 0.00 15 1016.7
20260502091003 18 351 3.2 8.0 0.00 0.00 0.00 14 1016.6
20260502090503 18 338 8.0 8.0 0.00 0.00 0.00 15 1016.7
20260502071503 21 298 0.0 3.2 0.00 0.00 0.00 13 1016.5
20260502070033 21 300 1.6 3.2 0.00 0.00 0.00 12 1016.5
20260502065533 21 298 0.0 3.2 0.00 0.00 0.00 12 1016.4
20260502065033 22 360 3.2 4.8 0.00 0.00 0.00 12 1016.6
20260502064533 22 298 1.6 8.0 0.00 0.00 0.00 11 1016.5
20260502064034 22 299 3.2 8.0 0.00 0.00 0.00 11 1016.5
20260502063533 22 284 1.6 8.0 0.00 0.00 0.00 10 1016.4
20260502063033 22 15 3.2 8.0 0.00 0.00 0.00 10 1016.3
20260502062533 22 29 4.8 9.7 0.00 0.00 0.00 10 1016.2
20260502062033 22 14 4.8 11.3 0.00 0.00 0.00 10 1016.4
20260502061533 22 18 3.2 11.3 0.00 0.00 0.00 9 1016.3
20260502060532 22 360 8.0 16.1 0.00 0.00 0.00 10 1016.0
20260502055533 22 80 1.6 14.5 0.00 0.00 0.00 10 1016.1
20260502055032 22 56 3.2 16.1 0.00 0.00 0.00 10 1016.0
20260502054533 23 49 6.4 16.1 0.00 0.00 0.00 10 1015.9
20260502054032 23 44 12.9 20.9 0.00 0.00 0.00 10 1016.0
20260502053032 23 79 4.8 19.3 0.00 0.00 0.00 10 1016.0
20260502052533 23 46 11.3 22.5 0.00 0.00 0.00 10 1015.9
20260502052033 23 40 12.9 25.7 0.00 0.00 0.00 10 1015.9
20260502051532 23 67 6.4 25.7 0.00 0.00 0.00 10 1015.8
20260502051033 23 360 9.7 19.3 0.00 0.00 0.00 10 1015.7
20260502050533 23 70 8.0 16.1 0.00 0.00 0.00 10 1015.8
20260502050032 23 47 4.8 11.3 0.00 0.00 0.00 10 1015.8
20260502045033 23 53 1.6 8.0 0.00 0.00 0.00 10 1015.5
20260502044533 24 48 1.6 8.0 0.00 0.00 0.00 10 1015.6
20260502044033 24 46 4.8 14.5 0.00 0.00 0.00 10 1015.4
20260502043533 24 32 3.2 14.5 0.00 0.00 0.00 10 1015.3
20260502043032 24 46 8.0 14.5 0.00 0.00 0.00 9 1015.3
20260502042032 24 32 12.9 16.1 0.00 0.00 0.00 9 1015.0
20260502041532 25 47 9.7 16.1 0.00 0.00 0.00 9 1015.1
20260502041032 25 27 14.5 16.1 0.00 0.00 0.00 9 1015.1
20260502040534 25 39 6.4 14.5 0.00 0.00 0.00 9 1015.0
20260502040033 25 60 14.5 16.1 0.00 0.00 0.00 9 1015.0
20260502035533 25 56 4.8 16.1 0.00 0.00 0.00 9 1014.6
20260502035032 25 24 9.7 12.9 0.00 0.00 0.00 9 1014.5
20260502034533 25 38 1.6 12.9 0.00 0.00 0.00 9 1014.5
20260502034032 25 37 3.2 12.9 0.00 0.00 0.00 9 1014.5
20260502033533 25 34 6.4 14.5 0.00 0.00 0.00 9 1014.2
20260502033033 25 36 8.0 16.1 0.00 0.00 0.00 9 1014.2
20260502032533 25 34 8.0 16.1 0.00 0.00 0.00 9 1014.1
20260502032033 25 24 6.4 16.1 0.00 0.00 0.00 9 1014.0
20260502031533 25 13 11.3 16.1 0.00 0.00 0.00 9 1013.9
20260502031034 26 30 9.7 19.3 0.00 0.00 0.00 8 1014.0
20260502030033 26 31 9.7 22.5 0.00 0.00 0.00 8 1013.9
20260502025532 26 19 3.2 19.3 0.00 0.00 0.00 8 1013.5
20260502025032 26 28 8.0 19.3 0.00 0.00 0.00 8 1013.4
20260502024534 26 45 6.4 12.9 0.00 0.00 0.00 8 1013.5
20260502024033 26 36 9.7 12.9 0.00 0.00 0.00 8 1013.4
20260502023532 26 355 3.2 12.9 0.00 0.00 0.00 8 1013.3
20260502023033 26 18 4.8 9.7 0.00 0.00 0.00 8 1013.4
20260502022003 27 360 4.8 16.1 0.00 0.00 0.00 9 1013.2
20260502021532 27 360 8.0 16.1 0.00 0.00 0.00 8 1013.3
20260502021033 27 360 8.0 11.3 0.00 0.00 0.00 8 1013.2
20260502020032 27 360 6.4 16.1 0.00 0.00 0.00 8 1013.3
20260502015532 27 360 3.2 16.1 0.00 0.00 0.00 8 1012.7
20260502014033 27 360 9.7 17.7 0.00 0.00 0.00 8 1012.6
20260502013502 27 360 3.2 14.5 0.00 0.00 0.00 9 1012.5
20260502013033 28 360 8.0 19.3 0.00 0.00 0.00 8 1012.7
20260502012533 28 360 4.8 19.3 0.00 0.00 0.00 8 1012.8
20260502012032 28 360 8.0 16.1 0.00 0.00 0.00 8 1012.8
20260502011532 28 360 4.8 20.9 0.00 0.00 0.00 8 1012.8
20260502011032 28 360 9.7 20.9 0.00 0.00 0.00 8 1012.8
20260502010532 28 360 9.7 19.3 0.00 0.00 0.00 9 1012.7
20260502010032 28 360 6.4 20.9 0.00 0.00 0.00 9 1012.6
20260502005532 28 279 4.8 20.9 0.00 0.00 0.00 8 1012.4
20260502005032 28 360 8.0 16.1 0.00 0.00 0.00 8 1012.4
20260502004032 28 360 6.4 12.9 0.00 0.00 0.00 9 1012.6
20260502003532 28 323 4.8 12.9 0.00 0.00 0.00 9 1012.6
20260502003032 28 360 4.8 12.9 0.00 0.00 0.00 9 1012.5
20260502002533 28 315 6.4 12.9 0.00 0.00 0.00 8 1012.5
20260502002032 28 16 6.4 12.9 0.00 0.00 0.00 8 1012.5
20260502001532 28 19 3.2 9.7 0.00 0.00 0.00 8 1012.6
20260502001032 28 151 1.6 16.1 0.00 0.00 0.00 9 1012.6
20260502000533 28 34 9.7 16.1 0.00 0.00 0.00 9 1012.6
20260502000032 28 25 6.4 12.9 0.00 0.00 0.00 9 1012.5
20260501235503 28 123 3.2 14.5 0.00 0.00 0.00 8 1012.7
20260501235032 28 231 0.0 24.1 0.00 0.00 0.00 9 1012.9
20260501234504 28 360 11.3 24.1 0.00 0.00 0.00 8 1012.8
20260501234032 29 281 3.2 17.7 0.00 0.00 0.00 8 1012.8
20260501233532 28 360 9.7 17.7 0.00 0.00 0.00 9 1012.7
20260501233032 29 79 4.8 22.5 0.00 0.00 0.00 8 1012.7
20260501231502 29 274 1.6 17.7 0.00 0.00 0.00 9 1013.1
20260501231032 29 360 6.4 17.7 0.00 0.00 0.00 8 1013.0
20260501230532 29 360 8.0 17.7 0.00 0.00 0.00 8 1013.0
20260501230032 28 360 6.4 16.1 0.00 0.00 0.00 9 1013.1
20260501225532 28 289 8.0 16.1 0.00 0.00 0.00 8 1013.0
20260501225032 28 351 11.3 16.1 0.00 0.00 0.00 10 1013.0
20260501224533 28 172 6.4 9.7 0.00 0.00 0.00 11 1013.3
20260501224032 28 177 3.2 9.7 0.00 0.00 0.00 10 1013.3
20260501223032 29 126 6.4 12.9 0.00 0.00 0.00 10 1013.6
20260501222532 28 61 4.8 17.7 0.00 0.00 0.00 11 1013.4
20260501222032 28 113 3.2 17.7 0.00 0.00 0.00 10 1013.5
20260501221532 28 82 8.0 12.9 0.00 0.00 0.00 10 1013.6
20260501221032 28 286 1.6 17.7 0.00 0.00 0.00 11 1013.7
20260501215532 28 257 1.6 9.7 0.00 0.00 0.00 9 1013.6
20260501215002 28 293 3.2 17.7 0.00 0.00 0.00 11 1013.9
20260501214502 28 109 3.2 17.7 0.00 0.00 0.00 11 1013.8
20260501213532 29 360 1.6 11.3 0.00 0.00 0.00 11 1014.0
20260501212532 27 175 3.2 9.7 0.00 0.00 0.00 11 1013.9
20260501211532 28 106 3.2 6.4 0.00 0.00 0.00 11 1014.3
20260501211032 27 360 0.0 9.7 0.00 0.00 0.00 12 1014.0
20260501210532 27 360 4.8 12.9 0.00 0.00 0.00 12 1014.1
20260501205502 28 291 1.6 11.3 0.00 0.00 0.00 11 1014.4
20260501205032 27 43 1.6 12.9 0.00 0.00 0.00 12 1014.4
20260501204532 27 360 3.2 12.9 0.00 0.00 0.00 12 1014.5
20260501204032 28 360 6.4 8.0 0.00 0.00 0.00 12 1014.5
20260501203532 27 360 0.0 8.0 0.00 0.00 0.00 12 1014.5
20260501203032 27 360 4.8 8.0 0.00 0.00 0.00 12 1014.5
20260501202533 27 360 3.2 8.0 0.00 0.00 0.00 12 1014.5
20260501202032 26 360 0.0 9.7 0.00 0.00 0.00 14 1014.7
20260501201532 26 360 4.8 11.3 0.00 0.00 0.00 13 1014.8
20260501201032 26 360 3.2 11.3 0.00 0.00 0.00 13 1014.8
20260501200502 27 360 9.7 12.9 0.00 0.00 0.00 13 1014.7
20260501200032 27 144 0.0 12.9 0.00 0.00 0.00 13 1014.8
20260501195532 28 360 4.8 11.3 0.00 0.00 0.00 12 1015.4
20260501195032 28 140 6.4 8.0 0.00 0.00 0.00 13 1015.4
20260501194532 27 144 4.8 8.0 0.00 0.00 0.00 13 1015.4
20260501194033 26 360 0.0 8.0 0.00 0.00 0.00 13 1015.3
20260501193532 26 360 0.0 16.1 0.00 0.00 0.00 13 1015.5
20260501193032 27 161 1.6 16.1 0.00 0.00 0.00 13 1015.7
20260501192531 27 130 9.7 14.5 0.00 0.00 0.00 12 1015.6
20260501192032 27 360 11.3 11.3 0.00 0.00 0.00 13 1015.7
20260501190532 26 220 6.4 12.9 0.00 0.00 0.00 13 1015.8
20260501190032 26 234 9.7 12.9 0.00 0.00 0.00 13 1016.0
20260501185532 26 360 4.8 17.7 0.00 0.00 0.00 13 1016.3
20260501185032 27 360 8.0 17.7 0.00 0.00 0.00 13 1016.5
20260501184531 27 360 6.4 12.9 0.00 0.00 0.00 13 1016.5
20260501184033 27 360 8.0 14.5 0.00 0.00 0.00 13 1016.6
20260501183531 27 186 1.6 14.5 0.00 0.00 0.00 13 1016.6
20260501183031 27 103 6.4 11.3 0.00 0.00 0.00 13 1016.6
20260501182503 27 181 3.2 12.9 0.00 0.00 0.00 13 1016.7
20260501182031 26 360 4.8 12.9 0.00 0.00 0.00 13 1016.7
20260501181532 26 192 1.6 9.7 0.00 0.00 0.00 14 1016.5
20260501180531 26 360 8.0 16.1 0.00 0.00 0.00 14 1016.6
20260501180032 26 238 1.6 16.1 0.00 0.00 0.00 13 1016.6
20260501175531 26 199 6.4 11.3 0.00 0.00 0.00 13 1016.7
20260501175032 26 217 1.6 9.7 0.00 0.00 0.00 13 1016.8
20260501174533 26 360 4.8 12.9 0.00 0.00 0.00 14 1016.9
20260501174002 25 175 3.2 12.9 0.00 0.00 0.00 13 1016.6
20260501173501 26 198 4.8 8.0 0.00 0.00 0.00 14 1016.9
20260501173032 25 360 1.6 12.9 0.00 0.00 0.00 14 1016.7
20260501172531 25 113 8.0 12.9 0.00 0.00 0.00 14 1016.7
20260501172032 25 188 0.0 11.3 0.00 0.00 0.00 14 1016.7
20260501171532 25 229 1.6 11.3 0.00 0.00 0.00 15 1016.9
20260501171031 25 329 0.0 11.3 0.00 0.00 0.00 15 1016.8
20260501170532 25 360 3.2 11.3 0.00 0.00 0.00 14 1016.8
20260501170032 25 211 1.6 12.9 0.00 0.00 0.00 15 1016.9
20260501165531 25 270 3.2 12.9 0.00 0.00 0.00 15 1017.0
20260501164532 25 360 1.6 9.7 0.00 0.00 0.00 14 1017.0
20260501164032 24 360 3.2 14.5 0.00 0.00 0.00 16 1016.9
20260501163531 24 360 3.2 14.5 0.00 0.00 0.00 16 1016.8